CZ-6A DEB

Satellite information

Favourite Embed

Satellite Type and Status

DEBRISIN ORBIT

Key statistics

Satellite CZ-6A DEB at a glance.

Uptime

907

Days in orbit

Revolutions

≈ 14.1

Per day

Orbit

SSO

Sun Synchronous Orbit

Inclination

98.7

Latest

Satellite identification and parameters

Extended collection of information and parameters for CZ-6A DEB.

Object identification

Identified? True

Debris? True

Object name: CZ-6A DEB

International designator: 2022-151GN

Object number (NORAD): 54462

Object ID (CCSDS): 54462

Country: PEOPLES REPUBLIC OF CHINA (PRC)

Current information (Y/N): Y

RCS size: SMALL

Orbital parameters

Period: 102.414 minutes

Inclination: 98.687 deg

SMA: 7251.035 km

Apoapsis: 990.646 km

Periapsis: 755.153 km

RAAN: 97.1932 deg

Eccentricy: 0.0162386

Argument of periapsis: 18.5983 deg

Mean anomaly: 342.1027 deg

Mean motion: 14.06056578 rev/day

Mean motion (dot): 0.00007735 rev/day2

B* drag term: 0.0042031 1/REarth

Two-line elements (TLE)

Creation date: May 6, 2025, 3:54 a.m.

Reference frame: TEME

Reference center: EARTH

Epoch: May 5, 2025, 7:53 p.m. UTC

TLE line 0: 0 CZ-6A DEB

TLE line 1: 1 54462U 22151GN 25125.82867084 .00007735 00000-0 42031-2 0 9994

TLE line 2: 2 54462 98.6870 97.1932 0162386 18.5983 342.1027 14.06056578126440

Live tracking on map

Real-time ground track for satellite CZ-6A DEB.

In-orbit conjunctions

A list of the most updated potential collisions computed for object CZ-6A DEB.

Target Orbit TCA Probability of collision Miss distance Type
COSMOS 1816 LEO 2025-04-26 01:27:14 0.0001406051 886.0 (m) PAYLOAD
COSMOS 1344 LEO 2024-11-19 21:43:34 0.0005097252 164.0 (m) PAYLOAD

Associated space launch

Chinese satellite reported for atmospheric/ocean/environmental/spatial parameter research purposes, details TBD.

CZ-6A DEB was lifted into orbit during the mission ‘Long March 6A | Yunhai 3’, on board a Long March 6A space rocket.

The launch took place on Nov. 11, 2022, 10:52 p.m. from Launch Complex 9A.

For more information about the launch, click the button.

Launch to space Long March 6A | Yunhai 3
Long March 6A | Yunhai 3

Agency: N/A

Status: Launch Successful

Launch date: Nov. 11, 2022, 10:52 p.m. UTC

Rocket: Long March 6A

Launch pad: Launch Complex 9A

Location: Taiyuan Satellite Launch Center, People's Republic of China

...

Latest news about this satellite

There are no fresh news available about this satellite. Check back as we update our databases every day.


Newsletter sign-up

Weekly statistics, charts and insights to help you stay on top of the space industry.